Preview of NWS' New Version of Forecast
This preview is not operational and should not be used for support decisions.

Regional Weather Roundup (RWR)

Issued by National Weather Service (NWS)

                            
000
ASUS46 KPQR 190310
RWROR 

OREGON REGIONAL WEATHER ROUNDUP
NATIONAL WEATHER SERVICE PORTLAND OR
800 PM PDT SUN AUG 18 2019

NOTE: "FAIR" INDICATES FEW OR NO CLOUDS BELOW 12,000 FEET WITH
NO SIGNIFICANT WEATHER AND/OR OBSTRUCTIONS TO VISIBILITY.

ORZ001>013-190400-
NORTHWEST OREGON

  
CITY           SKY/WX    TMP DP  RH WIND       PRES   REMARKS
ASTORIA        CLEAR     63  56  78 NW8       29.89S                  
TILLAMOOK      CLEAR     64  54  68 W8        29.90S                  
NEWPORT        CLEAR     61  55  82 N6        29.93S                  
PORTLAND       CLEAR     72  56  57 NW8       29.84R                  
VANCOUVER WA   CLEAR     71  55  56 N7        29.83S                  
SCAPPOOSE      CLEAR     70  56  61 NW8       29.83S                  
HILLSBORO      CLEAR     71  55  56 NW8       29.84R                  
AURORA         CLEAR     75  56  51 NE9       29.84R                  
MCMINNVILLE    CLEAR     72  56  57 S7        29.82R                  
SALEM          CLEAR     76  53  44 NE8       29.81S                  
CORVALLIS      CLEAR     69  56  62 NW15      29.84R                  
EUGENE         CLEAR     77  52  41 NE5       29.82R                  
$$

ORZ021-028-190400-
SOUTHWEST OREGON

  
CITY           SKY/WX    TMP DP  RH WIND       PRES   REMARKS
NORTH BEND     CLEAR     62  57  83 N7        29.93R                  
BROOKINGS      CLOUDY    54  52  94 SE6       29.92R FOG              
ROSEBURG       CLEAR     77  56  48 NW10G17   29.82R                  
SEXTON SUMMIT  CLEAR     66  54  65 NW8       29.94R                  
GRANTS PASS    FAIR      82  55  39 NW9       29.82R                  
MEDFORD        CLEAR     85  51  31 N13       29.77R                  
$$

ORZ014>016-041-190400-
COLUMBIA GORGE

  
CITY           SKY/WX    TMP DP  RH WIND       PRES   REMARKS
TROUTDALE      CLEAR     73  57  57 VRB3      29.83R                  
HOOD RIVER     CLEAR     72  52  49 SW3       29.78S                  
THE DALLES     CLEAR     76  52  43 NW9       29.72R                  
$$

ORZ029>031-041-044-049-050-061>064-502-503-505>511-190400-
EASTERN OREGON

  
CITY           SKY/WX    TMP DP  RH WIND       PRES   REMARKS
MADRAS         CLEAR     75  48  38 NW9       29.84R                  
REDMOND        CLEAR     80  45  28 NW14      29.84R                  
BEND           CLEAR     79  45  29 N8G15     29.86R                  
PRINEVILLE     CLEAR     79  41  25 NW15      29.84R                  
KLAMATH FALLS  CLEAR     79  49  34 NW12      29.90R                  
LAKEVIEW       CLEAR     70  38  31 S8        29.95R                  
HERMISTON      CLEAR     81  48  31 SW5       29.68S                  
PENDLETON      CLEAR     81  39  22 W3        29.73S                  
JOHN DAY       CLEAR     83  40  22 NW7       29.83R                  
MEACHAM        CLEAR     68  43  40 CALM      29.88R                  
LA GRANDE      CLEAR     79  42  26 W14       29.79R                  
BAKER CITY     CLEAR     78  43  28 E7        29.80S                  
BURNS          CLEAR     78  41  26 W8        29.85R                  
ROME             N/A     86  23  10 W7        29.82R                  
ONTARIO        CLEAR     82  48  30 CALM      29.73S                  
$$